When you browse on this site, cookies collect data to enhance your experience and personalize the content and advertising you see.
Visit our Privacy Policy to learn more. By continuing to use the site, you agree to this use of cookies and data.
  • In Lithuania
  • List of Countries
  • For 7 days
  • Water Temperature
  • Weather Map
  • Weather Widgets
  • user-avatar
    Login

    Hourly Weather Baku

    Today, 20 September, Friday

    Time Temperature Precipitation Wind Pressure Humidity
    00:00 +22°C° 0 mm 10 mps 762 mmHg 71%
    01:00 +22°C° 0 mm 10 mps 762 mmHg 71%
    02:00 +22°C° 0 mm 10 mps 761 mmHg 70%
    03:00 +21°C° 0 mm 9 mps 761 mmHg 70%
    04:00 +21°C° 0 mm 9 mps 761 mmHg 70%
    05:00 +21°C° 0 mm 8 mps 762 mmHg 71%
    06:00 +21°C° 0 mm 8 mps 762 mmHg 71%
    07:00 +22°C° 0 mm 7 mps 762 mmHg 68%
    08:00 +23°C° 0 mm 7 mps 761 mmHg 64%
    09:00 +23°C° 0 mm 7 mps 761 mmHg 61%
    10:00 +24°C° 0 mm 6 mps 761 mmHg 59%
    11:00 +25°C° 0 mm 4 mps 760 mmHg 56%
    12:00 +26°C° 0 mm 3 mps 759 mmHg 53%
    13:00 +26°C° 0 mm 3 mps 759 mmHg 50%
    14:00 +27°C° 0 mm 3 mps 758 mmHg 47%
    15:00 +28°C° 0 mm 3 mps 758 mmHg 44%
    16:00 +27°C° 0 mm 4 mps 757 mmHg 49%
    17:00 +26°C° 0 mm 4 mps 757 mmHg 54%
    18:00 +25°C° 0 mm 5 mps 757 mmHg 59%
    19:00 +25°C° 0 mm 5 mps 756 mmHg 63%
    20:00 +25°C° 0 mm 5 mps 756 mmHg 66%
    21:00 +23°C° 0 mm 5 mps 756 mmHg 69%
    22:00 +23°C° 0 mm 5 mps 755 mmHg 72%
    23:00 +23°C° 0 mm 6 mps 755 mmHg 74%

    Tomorrow, 21 September, Saturday

    Time Temperature Precipitation Wind Pressure Humidity
    00:00 +23°C° 0 mm 6 mps 754 mmHg 77%
    01:00 +23°C° 0 mm 6 mps 754 mmHg 78%
    02:00 +23°C° 0 mm 7 mps 753 mmHg 78%
    03:00 +22°C° 0 mm 7 mps 752 mmHg 79%
    04:00 +22°C° 0 mm 7 mps 752 mmHg 81%
    05:00 +22°C° 0 mm 7 mps 752 mmHg 83%
    06:00 +22°C° 0 mm 8 mps 752 mmHg 84%
    07:00 +22°C° 0 mm 8 mps 753 mmHg 78%
    08:00 +23°C° 0 mm 8 mps 753 mmHg 71%
    09:00 +23°C° 0 mm 9 mps 753 mmHg 65%
    10:00 +23°C° 0 mm 11 mps 754 mmHg 63%
    11:00 +23°C° 0 mm 13 mps 754 mmHg 61%
    12:00 +23°C° 0 mm 16 mps 754 mmHg 59%
    13:00 +23°C° 0 mm 17 mps 754 mmHg 61%
    14:00 +22°C° 0 mm 17 mps 754 mmHg 62%
    15:00 +20°C° 0 mm 18 mps 754 mmHg 63%
    16:00 +20°C° 0 mm 18 mps 755 mmHg 65%
    17:00 +19°C° 0 mm 18 mps 756 mmHg 67%
    18:00 +19°C° 0 mm 18 mps 756 mmHg 68%
    19:00 +19°C° 0 mm 18 mps 757 mmHg 69%
    20:00 +18°C° 0 mm 17 mps 758 mmHg 69%
    21:00 +18°C° 0 mm 17 mps 759 mmHg 70%
    22:00 +18°C° 0 mm 16 mps 760 mmHg 69%
    23:00 +18°C° 0 mm 14 mps 760 mmHg 68%

    Day after tomorrow, 22 September, Sunday

    Time Temperature Precipitation Wind Pressure Humidity
    00:00 +17°C° 0 mm 13 mps 761 mmHg 67%
    01:00 +17°C° 0 mm 13 mps 761 mmHg 65%
    02:00 +17°C° 0 mm 13 mps 761 mmHg 64%
    03:00 +15°C° 0 mm 13 mps 762 mmHg 63%
    04:00 +15°C° 0 mm 12 mps 762 mmHg 62%
    05:00 +16°C° 0 mm 11 mps 763 mmHg 61%
    06:00 +16°C° 0 mm 10 mps 764 mmHg 59%
    07:00 +17°C° 0 mm 9 mps 764 mmHg 59%
    08:00 +17°C° 0 mm 9 mps 765 mmHg 58%
    09:00 +17°C° 0 mm 8 mps 765 mmHg 58%
    10:00 +18°C° 0 mm 8 mps 766 mmHg 55%
    11:00 +18°C° 0 mm 7 mps 766 mmHg 51%
    12:00 +20°C° 0 mm 7 mps 766 mmHg 48%
    13:00 +20°C° 0 mm 6 mps 766 mmHg 47%
    14:00 +20°C° 0 mm 5 mps 766 mmHg 46%
    15:00 +20°C° 0 mm 4 mps 765 mmHg 45%
    16:00 +20°C° 0 mm 4 mps 765 mmHg 46%
    17:00 +20°C° 0 mm 4 mps 765 mmHg 46%
    18:00 +19°C° 0 mm 4 mps 765 mmHg 47%
    19:00 +19°C° 0 mm 4 mps 765 mmHg 50%
    20:00 +19°C° 0 mm 3 mps 765 mmHg 52%
    21:00 +19°C° 0 mm 3 mps 765 mmHg 55%
    22:00 +19°C° 0 mm 3 mps 765 mmHg 56%
    23:00 +20°C° 0 mm 3 mps 765 mmHg 57%

    23 September, Monday

    Time Temperature Precipitation Wind Pressure Humidity
    00:00 +20°C° 0 mm 3 mps 765 mmHg 58%
    01:00 +20°C° 0 mm 3 mps 764 mmHg 61%
    02:00 +20°C° 0 mm 3 mps 764 mmHg 63%
    03:00 +19°C° 0 mm 3 mps 764 mmHg 65%
    04:00 +20°C° 0 mm 3 mps 764 mmHg 65%
    05:00 +20°C° 0 mm 3 mps 764 mmHg 65%
    06:00 +20°C° 0 mm 3 mps 764 mmHg 65%
    07:00 +20°C° 0.2 mm 3 mps 764 mmHg 66%
    08:00 +20°C° 0.2 mm 3 mps 764 mmHg 68%
    09:00 +20°C° 0.2 mm 3 mps 764 mmHg 70%
    10:00 +20°C° 0.3 mm 3 mps 763 mmHg 71%
    11:00 +20°C° 0.3 mm 3 mps 763 mmHg 71%
    12:00 +20°C° 0.3 mm 3 mps 763 mmHg 72%
    13:00 +20°C° 0.2 mm 2 mps 763 mmHg 73%
    14:00 +20°C° 0.2 mm 2 mps 762 mmHg 73%
    15:00 +20°C° 0.2 mm 2 mps 762 mmHg 73%
    16:00 +20°C° 0 mm 2 mps 762 mmHg 73%
    17:00 +20°C° 0 mm 3 mps 762 mmHg 72%
    18:00 +20°C° 0 mm 4 mps 762 mmHg 72%
    19:00 +20°C° 0 mm 4 mps 763 mmHg 71%
    20:00 +20°C° 0 mm 4 mps 763 mmHg 70%
    21:00 +20°C° 0 mm 5 mps 763 mmHg 69%
    22:00 +20°C° 0 mm 5 mps 763 mmHg 68%
    23:00 +20°C° 0 mm 6 mps 763 mmHg 67%

    24 September, Tuesday

    Time Temperature Precipitation Wind Pressure Humidity
    00:00 +20°C° 0 mm 6 mps 763 mmHg 66%
    01:00 +20°C° 0 mm 6 mps 763 mmHg 67%
    02:00 +20°C° 0 mm 5 mps 763 mmHg 67%
    03:00 +20°C° 0 mm 5 mps 763 mmHg 68%
    04:00 +20°C° 0 mm 4 mps 763 mmHg 67%
    05:00 +20°C° 0 mm 4 mps 763 mmHg 66%
    06:00 +21°C° 0 mm 3 mps 763 mmHg 66%
    07:00 +21°C° 0 mm 3 mps 763 mmHg 64%
    08:00 +22°C° 0 mm 3 mps 763 mmHg 62%
    09:00 +22°C° 0 mm 3 mps 763 mmHg 60%
    10:00 +24°C° 0 mm 3 mps 763 mmHg 56%
    11:00 +25°C° 0 mm 3 mps 763 mmHg 52%
    12:00 +25°C° 0 mm 3 mps 762 mmHg 49%
    13:00 +26°C° 0 mm 3 mps 762 mmHg 49%
    14:00 +26°C° 0 mm 3 mps 761 mmHg 49%
    15:00 +26°C° 0 mm 4 mps 760 mmHg 48%
    16:00 +25°C° 0 mm 3 mps 760 mmHg 51%
    17:00 +25°C° 0 mm 3 mps 760 mmHg 53%
    18:00 +24°C° 0 mm 3 mps 760 mmHg 55%
    19:00 +24°C° 0 mm 2 mps 760 mmHg 57%
    20:00 +24°C° 0 mm 2 mps 760 mmHg 59%
    21:00 +24°C° 0 mm 2 mps 760 mmHg 60%
    22:00 +23°C° 0 mm 2 mps 760 mmHg 61%
    23:00 +23°C° 0 mm 1 mps 760 mmHg 62%

    25 September, Wednesday

    Time Temperature Precipitation Wind Pressure Humidity
    00:00 +23°C° 0 mm 1 mps 759 mmHg 64%
    01:00 +23°C° 0 mm 2 mps 759 mmHg 65%
    02:00 +23°C° 0 mm 2 mps 759 mmHg 66%
    03:00 +21°C° 0 mm 2 mps 758 mmHg 67%
    04:00 +21°C° 0 mm 3 mps 758 mmHg 68%
    05:00 +21°C° 0 mm 3 mps 758 mmHg 69%
    06:00 +21°C° 0 mm 4 mps 758 mmHg 69%
    07:00 +22°C° 0 mm 4 mps 758 mmHg 64%
    08:00 +23°C° 0 mm 4 mps 758 mmHg 60%
    09:00 +25°C° 0 mm 5 mps 759 mmHg 55%
    10:00 +26°C° 0 mm 5 mps 758 mmHg 53%
    11:00 +27°C° 0 mm 5 mps 758 mmHg 51%
    12:00 +27°C° 0 mm 5 mps 758 mmHg 49%
    13:00 +27°C° 0 mm 5 mps 758 mmHg 50%
    14:00 +27°C° 0 mm 6 mps 757 mmHg 51%
    15:00 +27°C° 0 mm 6 mps 757 mmHg 53%
    16:00 +26°C° 0 mm 6 mps 757 mmHg 55%
    17:00 +26°C° 0 mm 6 mps 757 mmHg 58%
    18:00 +24°C° 0 mm 6 mps 757 mmHg 61%
    19:00 +24°C° 0 mm 6 mps 757 mmHg 63%
    20:00 +23°C° 0 mm 5 mps 757 mmHg 64%
    21:00 +23°C° 0 mm 5 mps 757 mmHg 66%
    22:00 +23°C° 0 mm 5 mps 757 mmHg 68%
    23:00 +23°C° 0 mm 4 mps 756 mmHg 70%
    Show more